Location: Waning Moon II Observatory
(30.3730°N, 89.7620°W)
Time: 04:22:40
(UTC-05:00)

Meteor 1-21 - Visible Passes

Search period start: 26 March 2017 00:00
Search period end: 05 April 2017 00:00
Orbit: 844 x 889 km, 81.2° (Epoch: 24 March)

Date Brightness Start Highest point End Pass type
(mag) Time Alt. Az. Time Alt. Az. Time Alt. Az.
26 Mar 7.5 19:39:58 10° NW 19:43:02 15° W 19:46:06 10° WSW visible
27 Mar 7.5 19:32:39 10° NW 19:35:41 15° W 19:38:43 10° WSW visible
02 Apr 4.3 06:15:53 10° S 06:21:36 82° W 06:27:16 10° N visible
03 Apr 4.2 06:08:33 10° S 06:14:15 82° W 06:19:55 10° N visible
04 Apr 4.2 06:01:13 10° S 06:06:55 81° W 06:12:34 10° N visible
